Hourly Weather Roundup
Issued by NWS Central Illinois

Home | Current Version | Previous Version | Text Only | Print | Product List | Glossary On
Versions: 1 2 3 4 5 6 7 8 9 10 11 12 13 14 15 16 17 18 19 20 21 22 23 24 25 26 27 28 29 30 31 32 33 34 35 36 37 38 39 40 41 42 43 44 45 46 47 48 49 50
000
NZUS43 KILX 271110
HWRILX

Area Weather Roundup
National Weather Service Lincoln IL
600 AM CDT SAT MAY 27 2017

NOTE:  "FAIR" indicates few or no clouds below 12,000 feet, with
       no sigificant weather and/or obstructions to visibility.


CITY           SKY/WX    TMP DP  RH WIND       PRES   REMARKS
Bloomington    FOG       59  59 100 N8        29.89R VSB 3/4
Champaign      CLOUDY    63  61  93 N3        29.87S FOG
Danville       FOG       61  60  99 NW5       29.85R VSB<1/4
Decatur        CLOUDY    61  61 100 N8        29.87R FOG
Effingham      FOG       63  63 100 CALM      29.88R VSB 3/4
Flora          CLOUDY    67  66  96 SW3       29.88R FOG
Galesburg      FOG       57  57 100 CALM      29.90R VSB<1/4
Jacksonville   FOG       58  58  99 N3        29.88R VSB<1/4
Lacon          FOG       57  57 100 CALM      29.90R VSB 1
Lawrenceville  PTCLDY    67  67 100 NW5       29.85S FOG
Litchfield     CLEAR     60  60  99 N3        29.87S FOG
$$


CITY           SKY/WX    TMP DP  RH WIND       PRES   REMARKS
Lincoln        CLOUDY    62  62  99 N3        29.89R FOG
Macomb         FOG       57  57 100 NE3       29.92R VSB<1/4
Mattoon        FOG       61  61 100 NW5       29.85R VSB 3/4
Mt Carmel AP   PTCLDY    67  65  95 W3        29.85R FOG
Olney-Noble AP PTCLDY    65  65 100 CALM      29.87R FOG
Paris AP       FOG       62  62 100 CALM      29.87R VSB 3/4
Peoria         FOG       59  59 100 CALM      29.90R VSB 1/2
Pontiac        CLOUDY    59  58  97 N6        29.89R FOG
Rantoul        FOG       63  62  99 W3        29.87R VSB<1/4
Robinson       CLOUDY    66  65  97 CALM      29.86S FOG
Springfield    FOG       62  62 100 N10       29.88R VSB 1/4
Taylorville    FOG       60  60 100 N5        29.88R VSB 3/4
$$

...REGIONAL REPORTS...


CITY           SKY/WX    TMP DP  RH WIND       PRES   REMARKS
Chicago O`Hare MOCLDY    53  50  89 E6        29.88R
Kankakee       FOG       58  58  97 CALM      29.88R VSB 1/2
Moline         FOG       58  57  97 CALM      29.90R VSB 1/4
Mount Sterling FOG       56  56  99 CALM      29.87R VSB<1/4
Mount Vernon   FOG       65  65 100 CALM      29.87R VSB 1/2
Pittsfield       N/A     59  59 100 N5        29.88R FOG
Quincy         FOG       56  56 100 NE6       29.87R VSB<1/4
Rockford       CLEAR     51  50  96 CALM      29.92R FOG
$$


CITY           SKY/WX    TMP DP  RH WIND       PRES   REMARKS
Burlington     FOG       59  59 100 CALM      29.89R VSB<1/4
Cedar Rapids   FOG       54  54 100 N6        29.90R VSB 1/16
Des Moines     FOG       61  59  93 E6        29.87S VSB 1
Kirksville     CLOUDY    59  58  96 E5        29.87F FOG
Ottumwa        FOG       57  57 100 NE5       29.89R VSB<1/4
St Louis       PTCLDY    69  64  84 N3        29.86R
$$


CITY           SKY/WX    TMP DP  RH WIND       PRES   REMARKS
Terre Haute    CLOUDY    68  64  87 NW6       29.86R
Evansville     PTCLDY    69  66  90 SW5       29.87R FOG
Indianapolis   CLOUDY    68  66  93 W7        29.83S
Lafayette      FOG       60  60 100 NW8       29.85R VSB 1/4
Madison        FOG       48  48 100 CALM      29.91R VSB 1/2
Milwaukee      PTCLDY    52  51  97 CALM      29.89S
$$






USA.gov is the U.S. government's official web portal to all federal, state and local government web resources and services.